• In Hungary
  • List of Countries
  • For 7 days
  • Water Temperature
  • Satellite Maps
  • Weather Map
  • News
  • Weather Widgets
  • user-avatar
    Login

    Hourly Weather Natitingou

    Today, 19 February, Monday

    Time Temperature Precipitation Wind Pressure Humidity
    00:00 +29°C° 0 mm 1 mps 715 mmHg 26%
    01:00 +29°C° 0 mm 1 mps 715 mmHg 30%
    02:00 +29°C° 0 mm 1 mps 715 mmHg 34%
    03:00 +28°C° 0 mm 1 mps 715 mmHg 38%
    04:00 +28°C° 0 mm 1 mps 715 mmHg 45%
    05:00 +27°C° 0 mm 1 mps 715 mmHg 52%
    06:00 +27°C° 0 mm 1 mps 716 mmHg 58%
    07:00 +29°C° 0 mm 2 mps 716 mmHg 54%
    08:00 +31°C° 0 mm 2 mps 717 mmHg 51%
    09:00 +34°C° 0 mm 2 mps 717 mmHg 47%
    10:00 +37°C° 0 mm 2 mps 717 mmHg 38%
    11:00 +39°C° 0 mm 1 mps 717 mmHg 29%
    12:00 +42°C° 0 mm 1 mps 717 mmHg 20%
    13:00 +42°C° 0 mm 1 mps 716 mmHg 20%
    14:00 +39°C° 0 mm 0 mps 715 mmHg 19%
    15:00 +39°C° 0 mm 0 mps 715 mmHg 18%
    16:00 +37°C° 0 mm 0 mps 714 mmHg 20%
    17:00 +36°C° 0 mm 0 mps 714 mmHg 22%
    18:00 +36°C° 0 mm 1 mps 714 mmHg 23%
    19:00 +36°C° 0 mm 1 mps 714 mmHg 25%
    20:00 +35°C° 0 mm 1 mps 715 mmHg 26%
    21:00 +35°C° 0 mm 2 mps 715 mmHg 28%
    22:00 +34°C° 0 mm 1 mps 715 mmHg 31%
    23:00 +33°C° 0 mm 1 mps 715 mmHg 33%

    Tomorrow, 20 February, Tuesday

    Time Temperature Precipitation Wind Pressure Humidity
    00:00 +32°C° 0 mm 1 mps 715 mmHg 36%
    01:00 +32°C° 0 mm 1 mps 715 mmHg 37%
    02:00 +32°C° 0 mm 1 mps 715 mmHg 39%
    03:00 +31°C° 0 mm 1 mps 714 mmHg 40%
    04:00 +31°C° 0.1 mm 1 mps 715 mmHg 44%
    05:00 +30°C° 0.1 mm 2 mps 715 mmHg 47%
    06:00 +29°C° 0.1 mm 2 mps 715 mmHg 51%
    07:00 +30°C° 0.2 mm 2 mps 716 mmHg 49%
    08:00 +31°C° 0.2 mm 3 mps 716 mmHg 48%
    09:00 +33°C° 0.2 mm 3 mps 717 mmHg 47%
    10:00 +35°C° 0 mm 3 mps 717 mmHg 40%
    11:00 +37°C° 0 mm 3 mps 716 mmHg 33%
    12:00 +39°C° 0 mm 2 mps 716 mmHg 27%
    13:00 +40°C° 0 mm 2 mps 715 mmHg 25%
    14:00 +40°C° 0 mm 2 mps 714 mmHg 24%
    15:00 +40°C° 0 mm 2 mps 713 mmHg 22%
    16:00 +39°C° 0 mm 1 mps 713 mmHg 23%
    17:00 +37°C° 0 mm 1 mps 713 mmHg 25%
    18:00 +36°C° 0 mm 1 mps 713 mmHg 26%
    19:00 +35°C° 0 mm 1 mps 714 mmHg 28%
    20:00 +34°C° 0 mm 1 mps 714 mmHg 29%
    21:00 +33°C° 0 mm 1 mps 714 mmHg 31%
    22:00 +33°C° 0 mm 1 mps 714 mmHg 32%
    23:00 +33°C° 0 mm 1 mps 714 mmHg 33%

    Day after tomorrow, 21 February, Wednesday

    Time Temperature Precipitation Wind Pressure Humidity
    00:00 +33°C° 0 mm 1 mps 714 mmHg 34%
    01:00 +32°C° 0 mm 2 mps 714 mmHg 37%
    02:00 +31°C° 0 mm 2 mps 714 mmHg 39%
    03:00 +31°C° 0 mm 3 mps 714 mmHg 42%
    04:00 +30°C° 0 mm 3 mps 714 mmHg 47%
    05:00 +30°C° 0 mm 3 mps 714 mmHg 52%
    06:00 +29°C° 0 mm 4 mps 714 mmHg 56%
    07:00 +30°C° 0 mm 4 mps 715 mmHg 54%
    08:00 +32°C° 0 mm 4 mps 715 mmHg 52%
    09:00 +33°C° 0 mm 4 mps 716 mmHg 49%
    10:00 +35°C° 0 mm 4 mps 715 mmHg 44%
    11:00 +37°C° 0 mm 4 mps 715 mmHg 38%
    12:00 +40°C° 0 mm 4 mps 714 mmHg 32%
    13:00 +39°C° 0 mm 3 mps 714 mmHg 31%
    14:00 +39°C° 0 mm 3 mps 713 mmHg 29%
    15:00 +39°C° 0 mm 3 mps 712 mmHg 27%
    16:00 +39°C° 0.1 mm 3 mps 712 mmHg 29%
    17:00 +38°C° 0.1 mm 3 mps 712 mmHg 31%
    18:00 +37°C° 0.1 mm 3 mps 713 mmHg 33%
    19:00 +35°C° 0.6 mm 2 mps 713 mmHg 38%
    20:00 +34°C° 0.6 mm 2 mps 714 mmHg 43%
    21:00 +32°C° 0.6 mm 2 mps 714 mmHg 48%
    22:00 +31°C° 0.7 mm 2 mps 714 mmHg 51%
    23:00 +31°C° 0.7 mm 1 mps 714 mmHg 54%

    22 February, Thursday

    Time Temperature Precipitation Wind Pressure Humidity
    00:00 +30°C° 0.7 mm 1 mps 714 mmHg 57%
    01:00 +30°C° 0.5 mm 2 mps 713 mmHg 59%
    02:00 +29°C° 0.5 mm 3 mps 713 mmHg 61%
    03:00 +29°C° 0.5 mm 4 mps 713 mmHg 63%
    04:00 +28°C° 0 mm 4 mps 713 mmHg 64%
    05:00 +28°C° 0 mm 4 mps 713 mmHg 65%
    06:00 +28°C° 0 mm 4 mps 713 mmHg 67%
    07:00 +29°C° 0 mm 4 mps 714 mmHg 63%
    08:00 +30°C° 0 mm 4 mps 715 mmHg 59%
    09:00 +32°C° 0 mm 4 mps 715 mmHg 56%
    10:00 +34°C° 0 mm 4 mps 715 mmHg 50%
    11:00 +35°C° 0 mm 4 mps 715 mmHg 44%
    12:00 +37°C° 0 mm 4 mps 714 mmHg 39%
    13:00 +37°C° 0 mm 3 mps 713 mmHg 39%
    14:00 +36°C° 0 mm 3 mps 713 mmHg 39%
    15:00 +36°C° 0 mm 3 mps 712 mmHg 40%
    16:00 +35°C° 0.2 mm 2 mps 712 mmHg 42%
    17:00 +35°C° 0.2 mm 2 mps 712 mmHg 43%
    18:00 +33°C° 0.2 mm 1 mps 712 mmHg 45%
    19:00 +32°C° 0.4 mm 2 mps 713 mmHg 49%
    20:00 +31°C° 0.4 mm 2 mps 713 mmHg 53%
    21:00 +30°C° 0.4 mm 3 mps 714 mmHg 57%
    22:00 +30°C° 0.8 mm 3 mps 714 mmHg 59%
    23:00 +29°C° 0.8 mm 3 mps 714 mmHg 62%

    23 February, Friday

    Time Temperature Precipitation Wind Pressure Humidity
    00:00 +29°C° 0.8 mm 3 mps 714 mmHg 64%
    01:00 +28°C° 0.2 mm 2 mps 713 mmHg 66%
    02:00 +28°C° 0.2 mm 2 mps 713 mmHg 67%
    03:00 +27°C° 0.2 mm 2 mps 713 mmHg 69%
    04:00 +27°C° 0.3 mm 3 mps 713 mmHg 69%
    05:00 +27°C° 0.3 mm 3 mps 714 mmHg 70%
    06:00 +27°C° 0.3 mm 4 mps 714 mmHg 70%
    07:00 +28°C° 0 mm 3 mps 715 mmHg 65%
    08:00 +29°C° 0 mm 3 mps 715 mmHg 60%
    09:00 +30°C° 0 mm 3 mps 716 mmHg 55%
    10:00 +33°C° 0 mm 3 mps 715 mmHg 49%
    11:00 +34°C° 0 mm 3 mps 715 mmHg 43%
    12:00 +36°C° 0 mm 3 mps 715 mmHg 37%
    13:00 +36°C° 0 mm 3 mps 715 mmHg 36%
    14:00 +36°C° 0 mm 3 mps 714 mmHg 35%
    15:00 +37°C° 0 mm 3 mps 713 mmHg 34%
    16:00 +36°C° 0 mm 2 mps 713 mmHg 36%
    17:00 +35°C° 0 mm 2 mps 714 mmHg 38%
    18:00 +34°C° 0 mm 2 mps 714 mmHg 40%
    19:00 +34°C° 0.2 mm 2 mps 714 mmHg 43%
    20:00 +32°C° 0.2 mm 1 mps 715 mmHg 46%
    21:00 +31°C° 0.2 mm 1 mps 715 mmHg 50%
    22:00 +30°C° 0 mm 1 mps 715 mmHg 52%
    23:00 +30°C° 0 mm 1 mps 715 mmHg 54%

    24 February, Saturday

    Time Temperature Precipitation Wind Pressure Humidity
    00:00 +29°C° 0 mm 1 mps 715 mmHg 56%
    01:00 +29°C° 0 mm 1 mps 715 mmHg 57%
    02:00 +29°C° 0 mm 1 mps 714 mmHg 58%
    03:00 +28°C° 0 mm 1 mps 714 mmHg 59%
    04:00 +28°C° 0 mm 1 mps 714 mmHg 60%
    05:00 +28°C° 0 mm 1 mps 715 mmHg 61%
    06:00 +28°C° 0 mm 1 mps 715 mmHg 62%
    07:00 +29°C° 0 mm 1 mps 716 mmHg 58%
    08:00 +30°C° 0 mm 2 mps 716 mmHg 54%
    09:00 +32°C° 0 mm 2 mps 717 mmHg 49%
    10:00 +35°C° 0 mm 2 mps 717 mmHg 43%
    11:00 +37°C° 0 mm 1 mps 717 mmHg 36%
    12:00 +37°C° 0 mm 0 mps 716 mmHg 30%
    13:00 +39°C° 0 mm 1 mps 716 mmHg 31%
    14:00 +37°C° 0 mm 1 mps 715 mmHg 32%
    15:00 +36°C° 0 mm 1 mps 714 mmHg 33%
    16:00 +35°C° 0.1 mm 1 mps 714 mmHg 35%
    17:00 +35°C° 0.1 mm 1 mps 714 mmHg 37%
    18:00 +34°C° 0.1 mm 1 mps 715 mmHg 40%
    19:00 +33°C° 0.1 mm 1 mps 715 mmHg 43%
    20:00 +32°C° 0.1 mm 1 mps 715 mmHg 45%
    21:00 +32°C° 0.1 mm 1 mps 716 mmHg 48%
    22:00 +31°C° 0.6 mm 2 mps 716 mmHg 52%
    23:00 +30°C° 0.6 mm 2 mps 716 mmHg 55%
    Show more